FW1161 Weather Reports


Display with metric or nautical units.
time (UTC)temp
F
wind
direction
speed
MPH
gust
MPH
rain 1hr
in
rain 24hr
in
rain mn
in
humidity
%
barometer
mb
20260505124518 66 253 5.0 14.0 0.00 0.00 0.00 61 1003.8
20260505123043 66 257 2.0 4.0 0.00 0.00 0.00 62 1003.7
20260505121550 65 254 0.0 5.0 0.00 0.00 0.00 64 1003.6
20260505120111 64 299 3.0 11.0 0.00 0.00 0.00 66 1003.7
20260505114542 63 273 0.0 8.0 0.00 0.00 0.00 69 1003.7
20260505113054 63 274 1.0 7.0 0.00 0.00 0.00 70 1003.7
20260505111503 62 256 1.0 3.0 0.00 0.00 0.00 71 1003.3
20260505101527 61 275 0.0 3.0 0.00 0.00 0.00 73 1003.0
20260505100052 61 303 1.0 5.0 0.00 0.00 0.00 72 1002.9
20260505094514 61 269 0.0 2.0 0.00 0.00 0.00 72 1002.8
20260505093044 60 271 0.0 3.0 0.00 0.00 0.00 73 1002.7
20260505091523 59 263 0.0 3.0 0.00 0.00 0.00 75 1002.7
20260505090014 58 282 0.0 0.0 0.00 0.00 0.00 77 1002.5
20260505084536 58 281 0.0 0.0 0.00 0.00 0.00 76 1002.7
20260505083103 59 281 0.0 0.0 0.00 0.00 0.00 74 1002.7
20260505081524 60 282 0.0 0.0 0.00 0.00 0.00 72 1002.5
20260505080052 60 281 0.0 0.0 0.00 0.00 0.00 72 1002.7
20260505074513 61 284 0.0 3.0 0.00 0.00 0.00 70 1002.7
20260505073059 61 292 0.0 3.0 0.00 0.00 0.00 70 1002.8
20260505071515 61 258 0.0 4.0 0.00 0.00 0.00 69 1002.7
20260505070025 62 257 2.0 6.0 0.00 0.00 0.00 67 1002.7
20260505064549 62 294 1.0 6.0 0.00 0.00 0.00 68 1002.6
20260505063015 61 289 1.0 9.0 0.00 0.00 0.00 69 1002.4
20260505061546 61 280 0.0 6.0 0.00 0.00 0.00 68 1002.7
20260505060046 62 259 1.0 4.0 0.00 0.00 0.00 67 1002.7
20260505054512 61 273 0.0 3.0 0.00 0.00 0.00 68 1002.6
20260505053035 61 266 0.0 4.0 0.00 0.00 0.00 67 1002.7
20260505051503 61 273 0.0 1.0 0.00 0.00 0.00 67 1002.8
20260505041531 61 275 0.0 1.0 0.00 0.00 0.00 64 1002.7
20260505040048 61 277 0.0 3.0 0.00 0.00 0.00 63 1002.7
20260505034514 61 261 0.0 2.0 0.00 0.00 0.00 59 1002.7
20260505033020 62 261 0.0 0.0 0.00 0.00 0.00 57 1002.7
20260505031542 62 261 0.0 0.0 0.00 0.00 0.00 56 1002.8
20260505030047 62 261 0.0 1.0 0.00 0.00 0.00 55 1002.8
20260505024515 63 261 0.0 1.0 0.00 0.00 0.00 52 1002.9
20260505023027 64 261 0.0 2.0 0.00 0.00 0.00 50 1003.0
20260505021544 64 270 0.0 3.0 0.00 0.00 0.00 51 1003.0
20260505014520 64 278 0.0 0.0 0.00 0.00 0.00 53 1002.9
20260505013004 64 278 0.0 3.0 0.00 0.00 0.00 52 1003.0
20260505011536 64 280 0.0 0.0 0.00 0.00 0.00 51 1002.8
20260505010003 64 280 0.0 0.0 0.00 0.00 0.00 49 1002.6
20260505004534 65 280 0.0 0.0 0.00 0.00 0.00 47 1002.4
20260505003043 66 280 0.0 0.0 0.00 0.00 0.00 45 1002.4
20260505001508 68 280 0.0 0.0 0.00 0.00 0.00 43 1002.2
20260505000044 69 280 0.0 3.0 0.00 0.00 0.00 41 1002.1
20260504234555 70 256 1.0 3.0 0.00 0.00 0.00 40 1002.1
20260504233018 71 251 0.0 5.0 0.00 0.00 0.00 38 1001.9
20260504231540 72 261 1.0 6.0 0.00 0.00 0.00 37 1001.9
20260504230005 72 258 2.0 6.0 0.00 0.00 0.00 36 1001.8
20260504224535 72 292 4.0 9.0 0.00 0.00 0.00 36 1001.8
20260504223005 73 319 3.0 7.0 0.00 0.00 0.00 34 1002.0
20260504221527 73 254 3.0 7.0 0.00 0.00 0.00 34 1002.0
20260504220059 73 251 2.0 9.0 0.00 0.00 0.00 35 1002.0
20260504214526 73 270 2.0 11.0 0.00 0.00 0.00 36 1002.2
20260504213107 73 264 4.0 11.0 0.00 0.00 0.00 35 1002.2
20260504211519 74 316 2.0 8.0 0.00 0.00 0.00 34 1002.3
20260504210055 73 292 3.0 10.0 0.00 0.00 0.00 35 1002.2
20260504204511 73 284 6.0 13.0 0.00 0.00 0.00 34 1002.4
20260504203039 73 303 8.0 16.0 0.00 0.00 0.00 35 1002.2
20260504201507 73 254 2.0 12.0 0.00 0.00 0.00 34 1002.3
20260504200024 73 318 2.0 6.0 0.00 0.00 0.00 34 1002.3
20260504194528 73 260 3.0 10.0 0.00 0.00 0.00 34 1002.5
20260504193042 72 278 3.0 14.0 0.00 0.00 0.00 36 1002.5
20260504191611 72 242 3.0 11.0 0.00 0.00 0.00 35 1002.7
20260504190045 72 266 3.0 13.0 0.00 0.00 0.00 37 1003.1
20260504184502 71 275 3.0 11.0 0.00 0.00 0.00 36 1003.2
20260504183022 70 292 4.0 15.0 0.00 0.00 0.00 37 1003.5
20260504181545 70 254 5.0 11.0 0.00 0.00 0.00 35 1003.7
20260504180117 70 260 4.0 13.0 0.00 0.00 0.00 36 1003.9
20260504174516 70 297 5.0 13.0 0.00 0.00 0.00 36 1004.0
20260504173039 70 260 3.0 14.0 0.00 0.00 0.00 36 1004.2
20260504171504 69 256 3.0 10.0 0.00 0.00 0.00 37 1004.4